Location: Lake Crest
(37.6062°N, 88.9176°W)
Time: 18:17:10
(UTC+00:00)

CZ-4 R/B - Pass Details

Date: 15 December 2019
Orbit: 533 x 598 km, 97.7° (Epoch: 24 January)

Event Time Altitude Azimuth Distance (km) Brightness Sun altitude
Rises 01:04:34 0° 196° (SSW) 2,699 5.1 -28.2°
Reaches altitude 10° 01:07:02 10° 211° (SSW) 1,802 4.4 -28.7°
Maximum altitude 01:10:08 23° 264° (W) 1,183 3.7 -29.3°
Drops below altitude 10° 01:13:15 10° 317° (NW) 1,796 4.3 -29.9°
Sets 01:15:42 0° 333° (NNW) 2,687 5.1 -30.4°
